Wind_Speed
5 7 7 4 6 8 10 13 13 16 20 24 25 25 24 22 18 12 11 10 10 8
8 10 1 8 8 8 11 12 13 12 17 18 23 24 25 26 16 12 10 8 10 9
7 7 7 8 10 11 12 11 14 13 12 17 21 22 23 23 14 9 10 10 13 10
6 11 11 9 10 10 10 10 12 12 11 11 12 23 21 15 15 14 13 11 9 8
6 13 8 6 9 10 8 8 9 11 10 8 10 17 14 14 13 12 10 8 6 5
8 6 7 10 8 6 7 6 8 15 13 11 11 14 17 17 18 14 10 8 5 7
8 8 8 9 9 6 5 8 9 12 12 10 11 15 14 11 9 10 9 8 8 8
9 8 9 10 11 11 11 12 10 9 9 8 7 7 7 6 8 9 9 8 9 8
12 9 9 10 10 11 10 9 10 10 8 8 7 7 6 7 9 11 10 8 7 7
13 11 10 9 9 9 9 8 7 6 6 7 5 6 7 7 6 8 10 10 13 10
12 12 11 10 10 9 8 8 7 6 5 5 7 7 6 7 8 10 12 12 10 9
18 16 15 13 13 12 12 11 11 11 9 9 10 8 10 9 10 11 12 11 10 10
20 16 16 14 13 14 14 13 12 12 11 13 14 13 12 12 12 13 12 12 11 9
18 14 11 12 14 13 15 14 14 12 13 15 15 14 14 13 14 13 11 11 9 7
Wind_Direction
9 357 38 146 193 182 183 185 192 195 200 202 204 204 203 202 199 203 213 223 220 226
19 22 64 116 127 144 160 171 169 170 186 189 198 199 203 201 198 199 199 219 231 221
49 59 110 113 117 136 130 146 166 145 148 179 188 185 187 185 195 183 193 211 227 215
78 123 104 120 127 135 130 139 139 149 139 140 171 181 178 193 203 194 205 204 218 224
139 145 119 92 154 143 141 136 134 158 144 142 156 178 180 175 187 195 196 210 219 226
151 158 158 164 160 172 187 180 176 156 139 129 147 161 171 184 189 186 189 208 220 231
134 145 149 149 160 170 161 187 160 173 177 165 157 177 182 172 183 195 195 218 225 235
150 135 134 135 130 133 125 131 145 151 158 162 156 164 177 187 195 204 223 230 226 233
158 154 147 142 137 130 126 130 127 134 151 176 183 193 204 219 217 219 217 198 199 224
169 162 157 156 155 157 151 143 129 125 138 160 158 176 184 190 195 199 197 198 191 181
177 175 171 164 168 168 171 169 155 159 186 193 177 167 175 201 198 182 180 176 178 181
198 199 189 192 191 193 190 184 183 189 196 189 172 173 167 173 167 176 175 178 179 167
207 198 199 200 195 192 193 182 187 186 185 178 167 171 174 178 173 172 172 170 170 168
209 209 204 203 186 199 193 177 174 178 163 168 166 172 182 187 176 168 171 171 170 176
Height
1496 1493 1491 1490 1492 1494 1496 1500 1503 1506 1510 1514 1520 1525 1530 1536 1541 1544 1547 1549 1552 1555
1497 1494 1493 1493 1494 1495 1498 1500 1503 1506 1509 1513 1518 1522 1528 1534 1538 1541 1544 1547 1551 1552
1499 1497 1496 1496 1497 1498 1500 1502 1505 1508 1510 1513 1517 1521 1527 1533 1537 1539 1543 1548 1550 1550
1502 1499 1500 1500 1501 1502 1503 1504 1507 1510 1512 1515 1518 1521 1527 1533 1536 1540 1544 1547 1548 1547
1504 1502 1502 1504 1504 1505 1506 1508 1509 1512 1515 1517 1520 1524 1527 1531 1534 1539 1541 1543 1545 1545
1504 1504 1504 1505 1506 1507 1508 1510 1511 1514 1517 1519 1521 1524 1527 1530 1534 1535 1538 1541 1542 1544
1507 1506 1506 1506 1507 1509 1509 1511 1513 1516 1518 1521 1523 1526 1528 1529 1531 1534 1538 1539 1540 1541
1507 1508 1509 1509 1509 1510 1511 1512 1515 1517 1519 1522 1524 1526 1527 1529 1531 1534 1536 1537 1539 1540
1508 1510 1511 1512 1513 1513 1515 1515 1517 1519 1521 1522 1524 1526 1528 1529 1530 1531 1532 1534 1536 1537
1508 1510 1512 1514 1515 1515 1516 1517 1519 1520 1520 1521 1523 1524 1527 1528 1529 1530 1532 1532 1534 1536
1509 1510 1511 1512 1514 1515 1516 1518 1519 1520 1521 1522 1522 1523 1525 1527 1528 1529 1531 1533 1535 1536
1506 1507 1508 1510 1512 1513 1514 1516 1517 1518 1520 1521 1522 1523 1524 1526 1527 1528 1530 1532 1533 1535
1503 1505 1507 1508 1510 1511 1512 1513 1515 1517 1518 1520 1521 1522 1524 1526 1527 1528 1530 1532 1533 1535
1502 1503 1504 1506 1508 1510 1511 1512 1514 1516 1518 1520 1522 1522 1523 1525 1526 1529 1530 1532 1533 1534